Location: Pedholt
(56.0260°N, 10.2097°E)
Time: 18:39:06
(UTC+00:00)

A-11 Canister half - Pass Details

Date: 06 August 2021
Orbit: 1515 x 1685 km, 47.2° (Epoch: 20 September)

Event Time Altitude Azimuth Distance (km) Brightness Sun altitude
Rises 16:59:45 0° 249° (WSW) 4,793 12.8 17.1°
Reaches altitude 10° 17:02:55 10° 244° (WSW) 3,831 12.3 16.7°
Maximum altitude 17:12:14 51° 173° (S) 1,997 9.7 15.4°
Drops below altitude 10° 17:21:50 10° 102° (ESE) 3,939 10.6 14.1°
Sets 17:25:07 0° 97° (E) 4,936 11.0 13.6°
